STARLINK-4430, 53485

Orbit data source: Space-Track

STARLINK-4430, 53485 is a payload satellite owned by SpaceX/Seattle (US) in SSO that was launched on Fri, 12 Aug 2022 UTC via an FALCON 9 launch vehicle from the Air Force Western Test Range (AFWTR). Payload-class satellites include a variety of spacecraft equipped with specific instruments for various scientific and technological missions. These include communications satellites like Starlink; space stations such as the ISS; scientific satellites like the Hubble; Earth observation satellites from companies like Planet Labs, Umbra, and HawkEye 360; GPS; miniature CubeSats for education and research; and military/defense satellites.

Loading next visibility...
Identifier
53485, 2022-099W
Orbit
SSO
Country
Flag of USUS
Related business
Manufacturer
SpaceX/Seattle
Mission
Operational Commercial Communications
Bus & Motor
STARLINK, Unknown motor
Mass
300 kg wet, ~275 kg dry
Launch date (UTC)
2022-08-12 (3 years ago)
Launch vehicle
FALCON 9
Launch site
Air Force Western Test Range (AFWTR)
Object type
Payload
Rocket body
Debris
Shape & HBR
Box + 1 Pan, 10.1 m
Radar Cross Section
13.562 m², Large (>1 m²)

Expand to show TLE details & history
Last TLE update: 16 hours ago

TLE from 16 hours ago
0 STARLINK-4430
1 53485U 22099W   25346.84815439 -.00001974  00000-0 -14920-3 0  9991
2 53485  97.6023 105.1897 0000112 190.0790 170.0432 15.01261624182955
Epoch: 2025-12-12T20:21Z
TLE epoch observation values (Epoch: 2025-12-12T20:21:20.539Z)
Latitude
-0.00003°
Longitude
78.07023°
Altitude
566.141 km
Speed
7.578 km/s
True Right ascension
07h 00m 45s
True Declination
0° 00' 00"
Sunlit
Object was in full shadow at epoch
Visualization orbit readout
Latitude
Unknown
Longitude
Unknown
Altitude
Unknown
Speed
Unknown
Apparent Right ascension
Unknown
Apparent Declination
Unknown
Sunlit
N/A
Visualization observer readout
Local Sidereal Time
11:19:08
Azimuth
Unknown
Elevation
Unknown
Doppler factor
Unknown
Orbital elements
Apogee altitude
560.082 km
Perigee altitude
559.926 km
Semi-major axis
6,938.141 km
Eccentricity
0.00001
Inclination
97.6023°
RAAN
105.1897°
Arg. of periapsis
190.079°
True anomaly
170.04342°
Mean anomaly
170.0432°
Eccentric anomaly
170.04331°
Mean motion
3.75559 °/min
Orbital period
95.86 mins
BSTAR
-0.0001492
Loading maneuver chart data...
Computing Atmospheric mass density...
Loading historical data...
Loading historical data...
Loading historical data...
Loading historical data...
Loading historical data...
Loading historical data...
Loading historical data...

Documentation

Showing up to 5 results
|